TimeCST,TemperatureF,Dew PointF,Humidity,Sea Level PressureIn,VisibilityMPH,Wind Direction,Wind SpeedMPH,Gust SpeedMPH,PrecipitationIn,Events,Conditions,WindDirDegrees,DateUTC
12:54 AM,21.9,10.9,63,30.32,10.0,NW,10.4,-,N/A,,Partly Cloudy,320,2013-01-21 06:54:00
1:54 AM,21.0,12.0,68,30.33,10.0,NW,9.2,-,N/A,,Clear,310,2013-01-21 07:54:00
2:54 AM,19.9,12.0,71,30.33,10.0,NW,12.7,-,N/A,,Clear,310,2013-01-21 08:54:00
3:24 AM,19.4,10.4,68,30.34,10.0,NW,15.0,27.6,N/A,,Mostly Cloudy,320,2013-01-21 09:24:00
3:54 AM,19.9,10.9,68,30.35,10.0,NW,10.4,-,N/A,,Mostly Cloudy,320,2013-01-21 09:54:00
4:01 AM,19.4,10.4,68,30.34,10.0,WNW,12.7,-,N/A,,Scattered Clouds,300,2013-01-21 10:01:00
4:54 AM,19.0,10.0,68,30.35,10.0,WNW,9.2,-,N/A,,Clear,300,2013-01-21 10:54:00
5:54 AM,19.0,9.0,65,30.35,10.0,NW,10.4,-,N/A,,Clear,310,2013-01-21 11:54:00
6:54 AM,19.0,3.0,50,30.35,10.0,NW,18.4,27.6,N/A,,Clear,310,2013-01-21 12:54:00
7:54 AM,19.0,3.9,52,30.35,10.0,WNW,15.0,20.7,N/A,,Clear,300,2013-01-21 13:54:00
8:54 AM,19.9,3.0,48,30.36,10.0,WNW,18.4,-,N/A,,Clear,300,2013-01-21 14:54:00
9:54 AM,21.0,3.0,46,30.37,10.0,NW,11.5,24.2,N/A,,Clear,320,2013-01-21 15:54:00
10:54 AM,23.0,-2.0,34,30.37,10.0,NW,16.1,25.3,N/A,,Clear,310,2013-01-21 16:54:00
11:54 AM,23.0,-2.9,32,30.36,10.0,NW,17.3,27.6,N/A,,Clear,310,2013-01-21 17:54:00
12:54 PM,21.9,-0.9,37,30.36,10.0,North,12.7,23.0,N/A,,Clear,350,2013-01-21 18:54:00
1:54 PM,21.0,-2.0,36,30.37,10.0,NW,15.0,25.3,N/A,,Scattered Clouds,320,2013-01-21 19:54:00
2:54 PM,19.0,-2.0,40,30.37,10.0,NNW,13.8,-,N/A,,Overcast,330,2013-01-21 20:54:00
3:54 PM,18.0,-4.0,38,30.40,10.0,NW,15.0,-,N/A,,Overcast,320,2013-01-21 21:54:00
4:54 PM,18.0,-2.0,41,30.39,10.0,NW,11.5,-,N/A,,Overcast,320,2013-01-21 22:54:00
5:54 PM,17.1,-2.0,43,30.40,10.0,WNW,10.4,-,N/A,,Overcast,300,2013-01-21 23:54:00
6:54 PM,17.1,-2.9,41,30.40,10.0,NW,10.4,-,N/A,,Overcast,320,2013-01-22 00:54:00
7:54 PM,16.0,-2.9,43,30.40,10.0,WNW,10.4,-,N/A,,Scattered Clouds,300,2013-01-22 01:54:00
8:54 PM,16.0,-4.0,41,30.41,10.0,NW,12.7,-,N/A,,Mostly Cloudy,320,2013-01-22 02:54:00
9:54 PM,15.1,-2.9,45,30.42,10.0,NW,10.4,-,N/A,,Mostly Cloudy,320,2013-01-22 03:54:00
10:54 PM,15.1,-0.9,49,30.43,10.0,NNW,5.8,-,N/A,,Overcast,330,2013-01-22 04:54:00
11:54 PM,12.9,-0.9,54,30.43,10.0,NNW,4.6,-,N/A,,Mostly Cloudy,330,2013-01-22 05:54:00